DELTA 1 DEB, 7173

Orbit data source: Space-Track

DELTA 1 DEB, 7173 is space debris in SSO originally from a launch on Tue, 06 Nov 1973 UTC launched from the Air Force Western Test Range (AFWTR). Debris objects in space refer to the collection of defunct objects orbiting the Earth. Examples of debris include non-operational satellites, rocket bodies, and fragments generated from explosions, collisions, or faulty payload assembly.

Loading next visibility...
Identifier
7173, 1973-086EK
Orbit
SSO
Country
Flag of USUS
Related business
Manufacturer
Unknown
Mission
Spacecraft
Bus & Motor
Unknown
Mass
Unknown
Launch date (UTC)
1973-11-06 (53 years ago)
Launch vehicle
Unknown
Launch site
Air Force Western Test Range (AFWTR)
Object type
Payload
Rocket body
Debris
Shape & HBR
Unknown shape, 0.1 m
Radar Cross Section
Medium (>0.1 m² and <1 m²)

Expand to show TLE details & history
Last TLE update: 12 hours ago

TLE from 12 hours ago
0 DELTA 1 DEB
1 07173U 73086EK  26263.36028117  .00000136  00000-0  14639-2 0  9994
2 07173 102.5612  52.0680 0224262 307.5333  78.7063 12.28309282189590
Epoch: 2026-09-20T08:38Z
TLE epoch observation values (Epoch: 2026-09-20T08:38:48.293Z)
Latitude
28.06405°
Longitude
-83.6778°
Altitude
1,528.669 km
Speed
7.118 km/s
True Right ascension
03h 01m 06s
True Declination
27° 56' 08"
Sunlit
Object was in daylight at epoch
Visualization orbit readout
Latitude
Unknown
Longitude
Unknown
Altitude
Unknown
Speed
Unknown
Apparent Right ascension
Unknown
Apparent Declination
Unknown
Sunlit
N/A
Visualization observer readout
Local Sidereal Time
14:01:04
Azimuth
Unknown
Elevation
Unknown
Doppler factor
Unknown
Orbital elements
Apogee altitude
1,732.068 km
Perigee altitude
1,376.285 km
Semi-major axis
7,932.313 km
Eccentricity
0.02243
Inclination
102.5612°
RAAN
52.068°
Arg. of periapsis
307.5333°
True anomaly
81.23947°
Mean anomaly
78.7063°
Eccentric anomaly
79.97159°
Mean motion
3.07216 °/min
Orbital period
117.18 mins
BSTAR
0.0014639
Loading maneuver chart data...
Computing Atmospheric mass density...
Loading historical data...
Loading historical data...
Loading historical data...
Loading historical data...
Loading historical data...
Loading historical data...
Loading historical data...

Documentation

Showing up to 5 results
|